Probability
0 0 0 0 0 0 1 0 0 1 1 0 0 0 0 0 0 0 0 0 0 0 0 0 0 0 0 0 0 0 0 0 0 0 0 0 0 0 0 0 0 0 0 0
0 0 0 0 0 0 1 1 1 2 1 0 0 0 0 0 0 0 0 0 0 0 0 0 0 0 0 0 0 0 0 0 0 0 0 0 0 0 0 0 0 0 0 0
0 0 0 0 0 0 1 1 2 2 1 0 0 0 0 0 0 0 0 0 0 0 0 0 0 0 0 0 0 0 0 0 0 0 0 0 0 0 0 0 0 0 0 0
0 0 0 0 0 0 0 1 1 1 0 0 0 0 0 0 0 0 0 0 0 0 0 0 0 0 0 0 0 0 0 0 0 0 0 0 0 0 0 0 0 0 0 0
0 0 0 0 0 0 0 0 0 0 0 0 0 0 0 0 0 0 0 0 0 0 0 0 0 0 0 0 0 0 0 0 0 0 0 0 0 0 0 0 0 0 0 0
0 0 0 0 0 0 0 0 0 0 0 0 0 0 0 0 0 0 0 0 0 0 0 0 0 0 0 0 0 0 0 0 0 0 0 0 0 0 0 0 0 0 0 0
0 0 0 0 0 0 0 0 0 0 0 0 0 0 0 0 0 0 0 0 0 0 0 0 0 0 0 0 0 0 0 0 0 0 0 0 0 0 0 0 0 0 0 0
0 0 0 0 0 0 0 0 0 0 0 0 0 0 0 0 0 0 0 0 0 0 0 0 0 0 0 0 0 0 0 0 0 0 0 0 0 0 0 0 0 0 0 0
0 0 0 0 0 0 0 0 0 0 0 0 0 0 0 0 0 0 0 0 0 0 0 0 0 0 0 0 0 0 0 0 0 0 0 0 0 0 0 0 0 0 0 0
0 0 0 0 0 0 0 0 0 0 0 0 0 0 0 0 0 0 0 0 0 0 0 0 0 0 0 0 0 0 0 0 0 0 0 0 0 0 0 0 0 0 0 0
0 0 0 0 0 0 0 0 0 0 0 0 0 0 0 0 0 0 0 0 0 0 0 0 0 0 0 0 0 0 0 0 0 0 0 0 0 0 0 0 0 0 0 0
0 0 0 0 0 0 0 0 0 0 0 0 0 0 0 0 0 0 0 0 0 0 0 0 0 0 0 0 0 0 0 0 0 0 0 0 0 0 0 0 0 0 0 0
0 0 0 0 0 0 0 0 0 0 0 0 0 0 0 0 0 0 0 0 0 0 0 0 0 0 0 0 0 0 0 0 0 0 0 0 0 0 0 0 0 0 0 0
0 0 0 0 0 0 0 0 0 0 0 0 0 0 0 0 0 0 0 0 0 0 0 0 0 0 0 0 0 0 0 0 0 0 0 0 0 0 0 0 0 0 0 0
0 0 0 0 0 0 0 0 0 0 0 0 0 0 0 0 0 0 0 0 0 0 0 0 0 0 0 0 0 0 0 0 0 0 0 0 0 0 0 0 0 0 0 0
0 0 0 0 0 0 0 0 0 0 0 0 0 0 0 0 0 0 0 0 0 0 0 0 0 0 0 0 0 0 0 0 0 0 0 0 0 0 0 0 0 0 0 0
0 0 0 0 0 0 0 0 0 0 0 0 0 0 0 0 0 0 0 0 0 0 0 0 0 0 0 0 0 0 0 0 0 0 0 0 0 0 0 0 0 0 0 0
0 0 0 0 0 0 0 0 0 0 0 0 0 0 0 0 0 0 0 0 0 0 0 0 0 0 0 0 0 0 0 0 0 0 0 0 0 0 0 0 0 0 0 0
0 0 0 0 0 0 0 0 0 0 0 0 0 0 0 0 0 0 0 0 0 0 0 0 0 0 0 0 0 0 0 0 0 0 0 0 0 0 0 0 0 0 0 0
0 0 0 0 0 0 0 0 0 0 0 0 0 0 0 0 0 0 0 0 0 0 0 0 0 0 0 0 0 0 0 0 0 0 0 0 0 0 0 0 0 0 0 0
0 0 0 0 0 0 0 0 0 0 0 0 0 0 0 0 0 0 0 0 0 0 0 0 0 0 0 0 0 0 0 0 0 0 0 0 0 0 0 0 0 0 0 0
0 0 0 0 0 0 0 0 0 0 0 0 0 0 0 0 0 0 0 0 0 0 0 0 0 0 0 0 0 0 0 0 0 0 0 0 0 0 0 0 0 0 0 0
0 0 0 0 0 0 0 0 0 0 0 0 0 0 0 0 0 0 0 0 0 0 0 0 0 0 0 0 0 0 0 0 0 0 0 0 0 0 0 0 0 0 0 0
0 0 0 0 0 0 0 0 0 0 0 0 0 0 0 0 0 0 0 0 0 0 0 0 0 0 0 0 0 0 0 0 0 0 0 0 0 0 0 0 0 0 0 0
0 0 0 0 0 0 0 0 0 0 0 0 0 0 0 0 0 0 0 0 0 0 0 0 0 0 0 0 0 0 0 0 0 0 0 0 0 0 0 0 0 0 0 0
0 0 0 0 0 0 0 0 0 0 0 0 0 0 0 0 0 0 0 0 0 0 0 0 0 0 0 0 0 0 0 0 0 0 0 0 0 0 0 0 0 0 0 0
0 0 0 0 0 0 0 0 0 0 0 0 0 0 0 0 0 0 0 0 0 0 0 0 0 0 0 0 0 0 0 0 0 0 0 0 0 0 0 0 0 0 0 0
Wind_Speed
1 1 2 1 2 3 3 4 6 8 9 11 12 12 12 12 12 12 11 11 11 10 9 8 8 7 7 7 6 7 7 7 6 5 5 5 5 5 4 5 6 5 5 5
3 3 5 5 4 5 6 6 9 11 6 8 11 10 12 12 12 12 12 12 11 10 9 8 8 7 7 6 6 6 6 6 5 5 5 5 4 4 5 5 5 5 5 5
1 1 4 4 1 4 5 4 7 6 6 14 13 12 13 13 12 12 11 12 11 9 7 7 6 7 6 6 6 6 5 5 5 5 5 4 5 5 5 4 4 5 4 4
2 2 3 1 2 10 10 7 5 8 11 11 10 9 8 9 11 12 11 11 9 8 7 6 5 5 5 6 5 5 5 5 5 5 5 4 4 4 3 3 3 2 2 2
3 3 3 3 3 5 7 4 4 11 13 12 14 11 7 6 8 9 9 9 8 6 6 6 6 5 6 5 5 5 5 5 5 5 5 4 4 2 1 2 2 1 2 2
4 4 2 2 4 9 11 4 4 11 14 14 10 6 5 8 10 10 9 8 7 6 6 6 4 5 6 6 5 5 5 5 5 5 5 4 2 1 1 1 1 2 2 2
3 3 1 1 6 5 2 7 9 10 12 9 4 5 10 12 10 9 9 8 7 7 5 4 5 6 6 6 5 5 5 5 4 4 4 3 1 1 1 2 2 2 2 1
3 3 3 3 3 3 5 6 11 9 9 9 11 14 13 12 11 10 9 7 7 6 5 4 5 7 6 5 4 5 5 5 4 3 2 3 3 3 3 3 3 2 2 1
4 3 3 1 5 5 8 11 8 8 11 14 14 13 12 10 10 8 8 6 5 6 6 5 5 6 6 4 4 5 5 4 3 3 3 3 3 4 3 4 3 2 2 1
5 3 5 7 8 8 10 10 11 13 14 14 14 13 11 10 8 7 6 6 6 7 6 5 4 5 5 4 5 5 4 3 3 3 3 3 3 3 3 3 3 3 2 2
6 6 7 6 8 12 13 15 15 13 12 12 14 12 10 9 8 7 6 5 6 6 6 5 4 4 4 4 5 4 3 2 2 2 3 3 3 2 3 2 2 3 2 1
8 10 8 7 8 15 15 14 15 15 12 10 10 10 9 8 7 6 6 6 6 6 6 5 5 4 4 4 4 4 2 2 2 2 2 3 3 2 3 2 2 3 3 2
9 11 10 11 12 13 13 13 13 13 12 11 9 9 9 7 6 6 7 7 7 7 6 5 5 4 3 3 4 4 3 2 1 2 3 3 3 3 1 2 2 3 3 4
18 16 14 11 12 13 15 14 12 12 11 10 9 9 9 7 7 8 7 7 6 6 6 5 5 4 4 3 3 3 2 1 2 2 3 3 3 3 2 2 1 3 4 5
14 14 14 14 14 14 14 14 14 12 10 9 9 10 9 9 8 7 6 6 6 5 5 5 5 4 3 3 3 3 2 1 1 1 2 2 3 3 2 2 1 1 2 4
13 16 17 17 17 15 15 15 13 11 11 9 9 9 9 9 8 6 6 6 6 5 5 5 5 4 4 4 3 2 2 3 3 2 2 2 2 3 2 2 1 1 1 2
17 17 18 17 16 15 14 13 12 11 11 11 10 10 9 8 7 6 5 6 6 6 5 5 4 3 3 4 4 2 2 1 2 3 2 2 2 2 2 2 2 1 2 2
16 16 17 18 17 15 14 13 13 12 11 11 11 10 9 8 7 6 6 6 5 4 4 4 4 3 3 3 3 2 2 2 2 2 2 2 3 3 3 3 2 1 1 2
16 17 15 15 15 14 13 13 13 12 11 11 10 9 8 8 7 7 6 6 6 5 4 3 5 4 2 2 3 2 2 3 3 3 3 4 3 2 2 2 2 1 1 0
15 17 16 15 14 14 14 13 13 11 10 10 10 9 8 7 7 7 6 5 5 5 5 4 4 2 1 1 2 2 2 4 5 4 3 3 3 2 2 2 2 1 1 0
18 17 17 16 15 14 14 14 13 12 11 11 10 10 9 7 7 7 6 4 4 4 5 6 3 2 2 2 2 2 2 4 4 4 4 4 3 3 2 2 1 1 1 1
16 15 16 16 15 13 12 12 12 12 11 10 10 9 8 7 7 6 5 5 5 7 5 3 3 3 3 3 2 2 3 4 4 4 4 4 4 3 3 2 2 1 1 2
14 14 15 15 15 14 12 12 12 12 11 10 10 10 9 7 6 6 4 4 4 7 5 4 5 6 5 2 2 1 3 4 5 5 4 4 4 4 3 3 2 2 2 2
13 13 14 14 14 14 13 11 11 10 10 9 9 9 8 6 4 4 5 8 10 8 5 6 9 7 4 2 1 1 3 4 4 4 4 4 4 4 4 3 3 2 3 4
13 13 14 16 14 12 12 11 10 9 9 7 8 8 7 6 6 5 5 7 10 9 5 7 9 8 4 2 2 2 3 4 5 5 5 4 4 4 4 4 4 4 4 4
13 12 12 12 11 10 10 9 8 8 7 6 6 6 5 5 6 6 5 7 9 9 6 4 5 5 3 3 3 3 3 4 5 4 5 5 5 5 4 4 5 4 4 4
11 10 9 9 9 9 9 9 9 8 8 8 7 6 6 6 6 7 7 6 6 6 5 5 4 4 4 4 4 4 4 4 4 4 4 4 4 4 5 6 5 4 4 4
Wind_Direction
219 158 116 95 24 46 98 144 149 149 149 158 151 142 135 130 127 125 123 119 117 113 109 106 104 102 103 101 97 97 93 89 89 87 85 83 78 74 72 76 88 93 86 71
46 83 90 87 74 70 72 87 111 119 112 127 127 128 133 135 135 132 129 125 122 118 115 114 115 113 109 107 105 104 102 102 100 93 89 86 84 78 74 74 81 85 79 71
44 50 71 43 13 87 79 82 123 138 141 137 140 147 147 144 138 136 134 129 124 121 120 119 117 116 116 116 112 108 108 107 104 101 95 94 94 85 82 80 86 93 93 86
114 60 69 289 81 105 90 56 84 112 129 137 132 120 115 130 135 134 132 128 126 126 123 117 112 112 110 109 110 110 106 105 104 103 101 97 93 91 89 91 100 111 119 107
113 101 115 158 164 144 111 70 96 122 124 118 115 101 96 115 124 128 128 127 125 123 120 118 118 119 113 110 111 113 115 113 113 114 110 102 98 97 94 96 103 127 137 130
123 123 160 226 156 133 103 114 158 138 138 140 135 133 147 138 126 122 120 120 120 116 113 115 120 116 111 113 112 117 123 123 122 118 117 116 121 121 104 113 129 128 126 156
110 108 120 305 153 142 127 192 164 152 149 149 141 140 135 131 124 124 122 120 119 117 118 125 123 116 115 115 125 133 125 117 116 120 130 132 110 68 73 86 87 92 111 112
107 115 220 302 125 162 183 134 138 140 142 125 115 117 122 126 128 129 126 124 123 119 117 118 121 119 117 127 136 124 117 112 114 126 133 109 79 54 57 78 86 75 74 43
129 175 234 45 107 117 120 121 124 130 131 128 126 128 127 129 132 132 131 131 125 122 115 109 114 119 125 140 128 115 110 115 119 110 93 91 93 86 68 65 80 76 81 69
89 99 99 93 94 95 109 115 121 129 131 132 130 132 131 133 133 132 132 133 128 124 120 119 120 123 134 136 123 116 120 132 128 110 92 79 85 95 96 86 83 77 73 64
101 128 100 90 109 114 110 113 117 121 125 130 132 134 134 135 136 136 133 130 129 132 135 139 132 128 134 134 125 124 134 144 147 135 130 114 96 93 112 129 156 143 148 151
178 181 145 146 135 127 123 125 129 128 124 126 130 132 131 133 135 135 134 131 131 136 140 144 142 143 155 155 142 138 139 157 158 149 144 141 127 75 52 118 119 127 161 182
143 139 127 129 129 126 126 129 131 130 131 130 128 130 129 129 131 132 132 135 142 146 149 148 146 155 168 155 141 143 154 167 167 159 163 168 163 154 152 339 324 301 281 278
124 121 118 126 130 127 128 127 124 122 125 127 128 127 125 123 128 132 140 148 149 148 151 153 151 165 174 153 140 140 143 158 159 174 171 171 178 179 173 177 268 306 300 287
127 127 130 128 124 126 127 127 127 127 126 125 128 129 129 130 137 144 150 149 143 146 152 151 155 177 181 154 144 148 146 147 123 137 147 151 156 158 164 175 191 260 322 327
121 121 127 130 133 134 134 135 135 136 134 131 133 136 138 139 143 148 149 142 140 152 158 152 162 187 179 160 148 147 166 164 143 129 123 121 125 134 141 143 142 156 271 292
134 140 142 142 142 142 143 142 142 141 139 138 140 139 136 135 136 142 147 146 144 149 153 152 166 174 161 158 156 164 178 164 134 118 126 135 134 140 142 139 148 181 241 261
149 149 150 149 148 146 145 143 142 142 143 144 141 137 138 140 146 152 149 137 126 127 152 163 156 134 134 149 155 161 159 157 150 146 139 130 132 139 139 142 158 176 261 306
141 143 145 145 146 146 146 146 147 146 145 144 144 146 149 153 156 156 149 142 144 160 200 186 146 126 137 169 145 139 151 151 149 145 140 136 126 128 138 147 162 195 217 278
144 146 146 146 145 145 147 148 147 147 148 146 144 145 149 158 157 152 153 164 186 192 191 175 146 139 186 211 136 122 147 155 152 150 143 139 145 155 161 165 174 196 211 227
149 150 150 150 149 149 150 150 150 151 152 150 151 156 160 163 157 149 146 172 222 189 169 167 159 176 192 186 136 122 141 153 158 157 156 159 163 168 175 185 204 212 198 173
152 151 151 150 148 150 151 151 152 152 152 153 155 155 155 160 162 160 170 182 190 174 162 169 179 190 186 157 115 131 158 160 161 160 162 167 169 175 189 200 211 207 176 161
151 151 150 151 151 150 149 152 154 155 157 159 159 160 163 168 164 159 184 204 173 173 168 186 195 192 179 143 119 135 170 167 167 170 173 177 178 179 188 200 202 185 162 159
148 149 148 147 145 148 154 159 156 157 158 159 164 166 162 162 179 192 178 175 177 174 177 192 192 192 175 153 150 168 182 180 178 179 177 179 182 184 191 194 193 182 172 166
147 146 147 150 154 159 160 156 151 154 156 161 169 173 169 166 171 184 170 169 176 171 176 194 199 197 181 188 203 198 196 193 185 179 180 179 184 188 195 193 187 179 178 177
149 153 157 160 159 157 159 159 161 164 162 163 173 178 173 166 163 161 165 173 178 180 181 191 200 200 196 205 210 195 189 184 178 176 178 177 180 183 187 186 182 180 182 186
145 145 148 150 155 158 160 163 165 169 169 168 174 179 173 165 162 168 170 174 179 187 191 195 197 197 200 204 209 207 201 194 183 177 177 176 177 180 185 184 183 184 184 188